Location: Maignaut
(43.8886°N, 0.4051°E)
Time: 18:51:29
(UTC+00:00)

HJ-1C - Pass Details

Date: 27 February 2020
Orbit: 435 x 445 km, 97.2° (Epoch: 06 April)

Event Time Altitude Azimuth Distance (km) Brightness Sun altitude
Rises 18:39:49 0° 153° (SSE) 2,403 6.8 -10.9°
Reaches altitude 10° 18:41:52 10° 146° (SSE) 1,539 5.8 -11.3°
Maximum altitude 18:45:01 44° 74° (ENE) 619 3.6 -11.9°
Drops below altitude 10° 18:48:12 10° 1° (N) 1,552 6.1 -12.4°
Sets 18:50:16 0° 355° (N) 2,426 7.2 -12.8°
